When you browse on this site, cookies collect data to enhance your experience and personalize the content and advertising you see.
Visit our Privacy Policy to learn more. By continuing to use the site, you agree to this use of cookies and data.

Hourly Weather Halushchyntsi

Today, 6 July, Monday

Time Temperature Precipitation Wind Pressure Humidity
00:00 +17°C° 0 mm 0 mps 730 mmHg 88%
01:00 +17°C° 0 mm 0 mps 730 mmHg 88%
02:00 +19°C° 0 mm 1 mps 730 mmHg 90%
03:00 +19°C° 0 mm 1 mps 730 mmHg 91%
04:00 +19°C° 0 mm 1 mps 729 mmHg 91%
05:00 +18°C° 0 mm 1 mps 729 mmHg 92%
06:00 +20°C° 0 mm 1 mps 729 mmHg 88%
07:00 +21°C° 0 mm 2 mps 729 mmHg 85%
08:00 +23°C° 0 mm 2 mps 729 mmHg 80%
09:00 +24°C° 0 mm 2 mps 729 mmHg 76%
10:00 +25°C° 0 mm 3 mps 729 mmHg 73%
11:00 +26°C° 0 mm 3 mps 729 mmHg 69%
12:00 +27°C° 0 mm 3 mps 728 mmHg 67%
13:00 +27°C° 0 mm 3 mps 728 mmHg 64%
14:00 +28°C° 0 mm 2 mps 728 mmHg 62%
15:00 +28°C° 0 mm 2 mps 727 mmHg 63%
16:00 +27°C° 0 mm 2 mps 727 mmHg 65%
17:00 +27°C° 0 mm 2 mps 726 mmHg 66%
18:00 +26°C° 0 mm 2 mps 726 mmHg 71%
19:00 +24°C° 0 mm 2 mps 726 mmHg 76%
20:00 +23°C° 0 mm 2 mps 726 mmHg 81%
21:00 +22°C° 0 mm 1 mps 725 mmHg 82%
22:00 +21°C° 0 mm 1 mps 725 mmHg 84%
23:00 +18°C° 0 mm 0 mps 725 mmHg 86%

Tomorrow, 7 July, Tuesday

Time Temperature Precipitation Wind Pressure Humidity
00:00 +20°C° 0.3 mm 1 mps 725 mmHg 88%
01:00 +18°C° 0.3 mm 2 mps 726 mmHg 90%
02:00 +18°C° 0.3 mm 3 mps 726 mmHg 92%
03:00 +17°C° 0.8 mm 4 mps 726 mmHg 92%
04:00 +16°C° 0.8 mm 6 mps 726 mmHg 93%
05:00 +15°C° 0.8 mm 8 mps 726 mmHg 94%
06:00 +15°C° 0.6 mm 7 mps 727 mmHg 93%
07:00 +14°C° 0.6 mm 7 mps 727 mmHg 93%
08:00 +14°C° 0.6 mm 6 mps 727 mmHg 92%
09:00 +14°C° 0.2 mm 7 mps 728 mmHg 91%
10:00 +12°C° 0.2 mm 8 mps 728 mmHg 90%
11:00 +11°C° 0.2 mm 8 mps 728 mmHg 89%
12:00 +11°C° 0.1 mm 7 mps 729 mmHg 89%
13:00 +11°C° 0.1 mm 7 mps 729 mmHg 90%
14:00 +11°C° 0.1 mm 6 mps 729 mmHg 90%
15:00 +12°C° 0.2 mm 5 mps 729 mmHg 91%
16:00 +12°C° 0.2 mm 4 mps 729 mmHg 91%
17:00 +12°C° 0.2 mm 3 mps 729 mmHg 92%
18:00 +12°C° 0.1 mm 3 mps 730 mmHg 92%
19:00 +13°C° 0.1 mm 3 mps 730 mmHg 92%
20:00 +14°C° 0.1 mm 2 mps 730 mmHg 92%
21:00 +12°C° 0 mm 3 mps 731 mmHg 92%
22:00 +12°C° 0 mm 3 mps 731 mmHg 92%
23:00 +12°C° 0 mm 4 mps 731 mmHg 93%

Day after tomorrow, 8 July, Wednesday

Time Temperature Precipitation Wind Pressure Humidity
00:00 +11°C° 0 mm 4 mps 731 mmHg 93%
01:00 +10°C° 0 mm 4 mps 731 mmHg 94%
02:00 +10°C° 0 mm 4 mps 731 mmHg 95%
03:00 +8°C° 0 mm 4 mps 731 mmHg 95%
04:00 +9°C° 0 mm 3 mps 732 mmHg 95%
05:00 +8°C° 0 mm 3 mps 732 mmHg 95%
06:00 +10°C° 0 mm 4 mps 732 mmHg 90%
07:00 +12°C° 0 mm 4 mps 732 mmHg 86%
08:00 +13°C° 0 mm 4 mps 732 mmHg 81%
09:00 +14°C° 0 mm 4 mps 732 mmHg 76%
10:00 +15°C° 0 mm 4 mps 733 mmHg 71%
11:00 +17°C° 0 mm 4 mps 733 mmHg 66%
12:00 +18°C° 0 mm 4 mps 733 mmHg 65%
13:00 +18°C° 0 mm 4 mps 732 mmHg 64%
14:00 +19°C° 0 mm 4 mps 732 mmHg 63%
15:00 +19°C° 0 mm 3 mps 732 mmHg 64%
16:00 +19°C° 0 mm 3 mps 732 mmHg 65%
17:00 +19°C° 0 mm 3 mps 732 mmHg 66%
18:00 +18°C° 0 mm 2 mps 732 mmHg 70%
19:00 +17°C° 0 mm 2 mps 732 mmHg 75%
20:00 +15°C° 0 mm 1 mps 732 mmHg 80%
21:00 +15°C° 0 mm 1 mps 732 mmHg 81%
22:00 +14°C° 0 mm 1 mps 732 mmHg 82%
23:00 +14°C° 0 mm 2 mps 733 mmHg 84%

9 July, Thursday

Time Temperature Precipitation Wind Pressure Humidity
00:00 +14°C° 0 mm 2 mps 733 mmHg 85%
01:00 +14°C° 0 mm 2 mps 733 mmHg 86%
02:00 +14°C° 0 mm 2 mps 733 mmHg 87%
03:00 +14°C° 0.4 mm 2 mps 733 mmHg 90%
04:00 +14°C° 0.4 mm 2 mps 733 mmHg 93%
05:00 +14°C° 0.4 mm 2 mps 733 mmHg 96%
06:00 +14°C° 0.2 mm 2 mps 734 mmHg 96%
07:00 +14°C° 0.2 mm 2 mps 734 mmHg 95%
08:00 +14°C° 0.2 mm 2 mps 734 mmHg 94%
09:00 +15°C° 0.1 mm 2 mps 735 mmHg 90%
10:00 +16°C° 0.1 mm 2 mps 735 mmHg 85%
11:00 +17°C° 0.1 mm 2 mps 735 mmHg 81%
12:00 +18°C° 0.2 mm 3 mps 735 mmHg 78%
13:00 +19°C° 0.2 mm 3 mps 735 mmHg 75%
14:00 +19°C° 0.2 mm 3 mps 735 mmHg 72%
15:00 +19°C° 0.1 mm 3 mps 735 mmHg 72%
16:00 +20°C° 0.1 mm 3 mps 735 mmHg 73%
17:00 +20°C° 0.1 mm 3 mps 735 mmHg 73%
18:00 +18°C° 0 mm 3 mps 735 mmHg 77%
19:00 +17°C° 0 mm 2 mps 735 mmHg 81%
20:00 +16°C° 0 mm 1 mps 735 mmHg 85%
21:00 +15°C° 0 mm 1 mps 735 mmHg 86%
22:00 +14°C° 0 mm 1 mps 735 mmHg 87%
23:00 +12°C° 0 mm 0 mps 735 mmHg 88%

10 July, Friday

Time Temperature Precipitation Wind Pressure Humidity
00:00 +12°C° 0 mm 0 mps 735 mmHg 89%
01:00 +12°C° 0 mm 0 mps 735 mmHg 89%
02:00 +11°C° 0 mm 0 mps 735 mmHg 90%
03:00 +12°C° 0 mm 1 mps 735 mmHg 90%
04:00 +12°C° 0 mm 1 mps 735 mmHg 91%
05:00 +12°C° 0 mm 1 mps 735 mmHg 91%
06:00 +14°C° 0 mm 2 mps 735 mmHg 88%
07:00 +16°C° 0 mm 2 mps 735 mmHg 85%
08:00 +18°C° 0 mm 3 mps 735 mmHg 82%
09:00 +19°C° 0 mm 3 mps 735 mmHg 79%
10:00 +20°C° 0 mm 4 mps 735 mmHg 76%
11:00 +22°C° 0 mm 4 mps 735 mmHg 74%
12:00 +22°C° 0 mm 4 mps 734 mmHg 72%
13:00 +23°C° 0 mm 4 mps 734 mmHg 71%
14:00 +25°C° 0 mm 4 mps 734 mmHg 69%
15:00 +25°C° 0 mm 5 mps 733 mmHg 71%
16:00 +25°C° 0 mm 5 mps 733 mmHg 72%
17:00 +25°C° 0 mm 5 mps 733 mmHg 73%
18:00 +22°C° 0 mm 4 mps 733 mmHg 78%
19:00 +21°C° 0 mm 4 mps 733 mmHg 83%
20:00 +20°C° 0 mm 3 mps 732 mmHg 88%
21:00 +19°C° 0 mm 3 mps 732 mmHg 89%
22:00 +18°C° 0 mm 3 mps 732 mmHg 90%
23:00 +18°C° 0 mm 3 mps 732 mmHg 91%

11 July, Saturday

Time Temperature Precipitation Wind Pressure Humidity
00:00 +17°C° 0 mm 3 mps 732 mmHg 92%
01:00 +17°C° 0 mm 3 mps 732 mmHg 92%
02:00 +17°C° 0 mm 3 mps 732 mmHg 93%
03:00 +17°C° 0 mm 3 mps 732 mmHg 92%
04:00 +17°C° 0 mm 3 mps 732 mmHg 92%
05:00 +17°C° 0 mm 3 mps 733 mmHg 92%
06:00 +18°C° 0 mm 3 mps 733 mmHg 91%
07:00 +19°C° 0 mm 4 mps 733 mmHg 90%
08:00 +20°C° 0 mm 4 mps 734 mmHg 89%
09:00 +20°C° 0 mm 4 mps 734 mmHg 87%
10:00 +20°C° 0 mm 4 mps 735 mmHg 84%
11:00 +20°C° 0 mm 3 mps 735 mmHg 82%
12:00 +21°C° 0 mm 3 mps 735 mmHg 79%
13:00 +21°C° 0 mm 3 mps 735 mmHg 77%
14:00 +21°C° 0 mm 3 mps 735 mmHg 74%
15:00 +22°C° 0 mm 3 mps 735 mmHg 74%
16:00 +22°C° 0 mm 3 mps 735 mmHg 73%
17:00 +22°C° 0 mm 3 mps 735 mmHg 73%
18:00 +21°C° 0 mm 2 mps 735 mmHg 76%
19:00 +20°C° 0 mm 2 mps 735 mmHg 79%
20:00 +19°C° 0 mm 2 mps 735 mmHg 82%
21:00 +18°C° 0 mm 2 mps 735 mmHg 81%
22:00 +18°C° 0 mm 2 mps 735 mmHg 80%
23:00 +17°C° 0 mm 2 mps 735 mmHg 80%
Show more